User: anonymous   Login
Location: Biharia
(46.4333°N, 22.8000°E)
Time: 10:47:19
(UTC+00:00)
Language:

FENGYUN 1C DEB - Orbit

View from above orbital plane
View from above orbital plane
View from above satellite
View from above satellite

Ground track
Ground track

The orbit data is extracted from the following two-line orbital elements,

1 30625U 99025ANG 22228.75870023  .00002308  00000-0  12761-2 0  9991
2 30625  98.9208 152.0451 0076956 192.0167 167.9170 14.10880909794271
Epoch (UTC): 16 August 2022 18:12:31
Eccentricity: 0.0076956
inclination: 98.9208°
perigee height: 800 km
apogee height: 912 km
right ascension of ascending node: 152.0451°
argument of perigee: 192.0167°
revolutions per day: 14.10880909
mean anomaly at epoch: 167.9170°
orbit number at epoch: 79427

The dashed part of the orbit path shows where the satellite is in the earth's shadow,  

DLR